Regional Weather Roundup
Issued by NWS

Home | Current Version | Previous Version | Text Only | Print | Product List | Glossary On
Versions: 1 2 3 4 5 6 7 8 9 10 11 12 13 14 15 16 17 18 19 20 21 22 23 24 25 26 27 28 29 30 31 32 33 34 35 36 37 38 39 40 41 42 43 44 45 46 47 48 49 50
000
ASUS46 KSTO 261909
RWRCA

NORTHERN AND CENTRAL CA REGIONAL WEATHER ROUNDUP
NATIONAL WEATHER SERVICE SACRAMENTO CA
1200 PM PDT TUE JUL 26 2016

NOTE: FAIR INDICATES FEW OR NO CLOUDS BELOW 12,000 FEET WITH NO
SIGNIFICANT WEATHER AND/OR OBSTRUCTIONS TO VISIBILITY.

CAZ001-003-262000-
NORTHWEST AREA

CITY           SKY/WX    TMP DP  RH WIND       PRES   REMARKS
CRESCENT CITY  SUNNY     60  53  77 S9        29.99F
ARCATA         NOT AVBL
SHELTER COVE   NOT AVBL
UKIAH          SUNNY     92  51  24 E5        29.90F
$$

CAZ006-505>513-262000-
BAY AREA

CITY           SKY/WX    TMP DP  RH WIND       PRES   REMARKS
SANTA ROSA     SUNNY     85  55  35 S6        29.89F
SAN RAFAEL     N/A       75  MM  MM MISG
NAPA           SUNNY     79  54  41 S7        29.90F
CONCORD        SUNNY     90  51  26 VRB6      29.89F
OAKLAND CITY   N/A       75  MM  MM MISG
OAKLAND        MOSUNNY   73  58  59 SW5       29.92S
SAN FRAN CITY  N/A       66  MM  58 MISG
SAN FRAN ARPT  PTSUNNY   72  58  61 N6        29.91F
LIVERMORE      SUNNY     90  49  24 CALM      29.88F
HAYWARD        SUNNY     79  56  45 NW7       29.90F
REDWOOD CITY   N/A       MM  MM  MM MISG
MOFFETT ARPT   SUNNY     82  56  40 N6        29.90F
SAN JOSE ARPT  MOSUNNY   84  55  36 VRB3      29.90F
$$
CAZ034-037-514>518-262000-
CENTRAL COAST

CITY           SKY/WX    TMP DP  RH WIND       PRES   REMARKS
WATSONVILLE    SUNNY     71  55  56 S8        29.93F
SALINAS        SUNNY     73  54  51 NW12      29.91F HAZE
MONTEREY       MOSUNNY   58  52  80 VRB3      29.94F
PT PIEDRAS BLS NOT AVBL
SAN LUIS OBISP SUNNY     83  55  38 W7        29.89F
SANTA MARIA    SUNNY     72  57  59 W7        29.91F
$$
CAZ015-016-262000-
NORTHERN SACRAMENTO VALLEY

CITY           SKY/WX    TMP DP  RH WIND       PRES   REMARKS
REDDING        SUNNY    100  51  19 N5        29.86F HX  97
RED BLUFF      SUNNY    100  50  18 N5        29.87F HX  97
OROVILLE       SUNNY     91  58  32 W6        29.90F HX  90
$$
CAZ016>018-262000-
SOUTHERN SACRAMENTO VALLEY

CITY           SKY/WX    TMP DP  RH WIND       PRES   REMARKS
AUBURN         SUNNY     95  46  18 W5        29.97F HX  91
BEALE AFB      SUNNY     93  50  23 W5        29.86F HX  90
LINCOLN        FAIR      93  45  18 W6        29.87F
MARYSVILLE     SUNNY     93  55  27 W6        29.87F HX  91
SAC INTL ARPT  SUNNY     92  52  25 VRB6      29.87F
MATHER AIRPORT NOT AVBL
DOWNTOWN SAC   N/A       94  MM  MM MISG
SAC EXEC ARPT  SUNNY     91  50  24 CALM      29.87F
VACAVILLE      SUNNY     96  46  18 E3        29.89F HX  92
TRAVIS AFB     SUNNY     92  52  25 VRB1      29.87F
$$
CAZ019>021-262000-
SAN JOAQUIN VALLEY

CITY           SKY/WX    TMP DP  RH WIND       PRES   REMARKS
STOCKTON       SUNNY     91  56  30 VRB6      29.87F
MODESTO        SUNNY     93  51  23 VRB6      29.87F HX  90
MERCED         SUNNY     91  50  24 NW9       29.87F
LEMOORE        SUNNY     95  44  17 NW9       29.87F HX  91
FRESNO         SUNNY     93  54  26 S5        29.88S HX  91
HANFORD        SUNNY     93  50  23 VRB5      29.88F HX  90
PORTERVILLE    SUNNY     93  55  27 VRB6      29.89F HX  91
BAKERSFIELD    SUNNY     94  48  20 NW8       29.88F HX  90
$$
CAZ011-012-071-262000-
NORTHERN MOUNTAINS

CITY           SKY/WX    TMP DP  RH WIND       PRES   REMARKS
YREKA          SUNNY     87  46  24 CALM      30.08F
MOUNT SHASTA   SUNNY     88  54  31 W5        30.11F
ALTURAS        SUNNY     88  44  21 VRB5      30.15F
$$
CAZ011-012-071-262000-
SIERRA NEVADA MTNS

CITY           SKY/WX    TMP DP  RH WIND       PRES   REMARKS
BLUE CANYON    NOT AVBL
TRUCKEE        SUNNY     81  36  19 N3        30.26F
TAHOE VLY ARPT SUNNY     75  43  31 NE9       30.29S
MAMMOTH LAKES    N/A     87  24  10 SE8       30.34F
$$




USA.gov is the U.S. government's official web portal to all federal, state and local government web resources and services.